Weather in Maksimovka

Russia / Kaluga Oblast     54°56′33″N   36°19′35″E
temp.,
°C
wind,
m/s
gust,
m/s
humid.,
%
clouds,
%
prec.,
mm/h
press.,
hPa
HPBL,
m
19 may, wed
wed1900:00+16se36905 1.0 100392
03:00+15ese33952 1.4 100351
06:00+15sse399667 0.1 1004324
09:00+18sse588198 0.5 1005818
12:00+20sse577240 0.5 10051220
15:00+20sse696658 1.6 10061406
18:00+19sse4876100 0.4 1006878
21:00+15ese3492100 1.0 100670
20 may, thu
thu2000:00+13e249771 0.9 100575
03:00+13ene4119647 1.1 1003283
06:00+12se6129032 0.4 1003664
09:00+13se61185100 0.4 1003859
12:00+13se61083100 0.1 10041028
15:00+15sse81078100 0.8 10031144
18:00+13sse61087100 0.3 1002834
21:00+11ssw6990100 0.4 1003832
21 may, fri
fri2100:00+10ssw61092100 0.0 1003798
03:00+10wsw61295100 0.9 1005694
06:00+10w61294100 0.0 1008821
09:00+11wnw6980100 0.1 1011885
12:00+16w5756100 0.0 10131521
15:00+17w5650100 0.0 10131822
18:00+16wsw476244 0.0 1014602
21:00+11wsw35774 0.0 101773
22 may, sat
sat2200:00+8w22854 0.0 101828
03:00+6w22874 0.0 101913
06:00+8nnw01825 0.0 101936
09:00+14se22640 0.0 1020491
12:00+17ssw23500 0.0 10191406
15:00+18ssw34461 0.0 10181663
18:00+18sw246044 0.0 1018355
21:00+12ese11671 0.0 101710
23 may, sun
sun2300:00+10se46900 0.0 101792
03:00+9se22932 0.0 101632
06:00+10ese27900 0.0 1016196
09:00+16ese46693 0.0 1013647
12:00+20se466454 0.0 10111167
15:00+19sse4679100 0.1 1009911
18:00+19s4583100 0.4 1007660
21:00+15ssw349758 2.9 100886